This demonstration page uses our WeatherBlox Daily Observations layout. Learn more.

Left ArrowRight Arrow

31.31129, -92.44514

Hourly Observations for October 27, 2015

Temp ( °F °C ) Dew Point ( °F °C ) Humidity (%) Winds ( mph kmh ) Pressure ( in mb ) Visibility ( mi km ) Precip ( " mm )
12:01 am 00:01 Cloudy with Mist and Fog 66 18.9 66 18.9 100 100 N 3 6 29.74 1007 6 10 0.00 0.00
12:26 am 00:26 Cloudy with Mist and Fog 66 18.9 66 18.9 100 100 N 6 9 29.74 1007 5 8 0.00 0.00
12:53 am 00:53 Cloudy with Mist and Fog 66 18.9 66 18.9 100 100 N 7 11 29.74 1007 5 8 0.00 0.00
1:53 am 01:53 Cloudy 65 18.3 65 18.3 100 100 NNW 6 9 29.74 1007 8 13 0.00 0.00
2:44 am 02:44 Cloudy with Mist and Fog 65 18.3 65 18.3 100 100 NNW 7 11 29.74 1007 2 3 0.00 0.00
2:53 am 02:53 Cloudy with Mist and Fog 65 18.3 65 18.3 100 100 NNW 7 11 29.74 1007 2 3 0.00 0.00
3:43 am 03:43 Cloudy with Mist and Fog 65 18.3 65 18.3 100 100 NNW 7 11 29.74 1007 2 3 0.00 0.00
3:53 am 03:53 Cloudy with Mist and Fog 64 17.8 64 17.8 100 100 NNW 7 11 29.73 1007 2 3 0.00 0.00
4:53 am 04:53 Cloudy with Mist and Fog 64 17.8 64 17.8 100 100 NW 8 13 29.74 1007 2 3 0.00 0.00
5:17 am 05:17 Cloudy with Mist and Fog 64 17.8 64 17.8 100 100 NW 8 13 29.74 1007 2 3 0.00 0.00
5:53 am 05:53 Cloudy with Mist and Fog 64 17.8 64 17.8 100 100 NW 8 13 29.75 1007 2 2 0.00 0.00
6:22 am 06:22 Cloudy with Mist and Fog 64 17.8 64 17.8 100 100 NW 8 13 29.74 1007 3 4 0.00 0.00
6:44 am 06:44 Cloudy with Mist and Fog 64 17.8 64 17.8 100 100 NW 9 15 29.74 1007 3 5 0.00 0.00
6:53 am 06:53 Cloudy with Mist and Fog 63 17.2 63 17.2 100 100 WNW 9 15 29.75 1008 3 5 0.00 0.00
7:46 am 07:46 Cloudy with Mist and Fog 63 17.2 63 17.2 100 100 NW 8 13 29.74 1007 2 3 0.00 0.00
7:53 am 07:53 Cloudy with Mist and Fog 63 17.2 63 17.2 100 100 WNW 7 11 29.76 1008 3 4 0.00 0.00
8:30 am 08:30 Cloudy with Mist and Fog 63 17.2 63 17.2 100 100 WNW 7 11 29.77 1008 3 5 0.00 0.00
8:41 am 08:41 Cloudy with Mist and Fog 63 17.2 63 17.2 100 100 WNW 9 15 29.77 1008 3 4 0.00 0.00
8:53 am 08:53 Cloudy with Mist and Fog 63 17.2 63 17.2 100 100 WNW 8 13 29.78 1008 2 3 0.00 0.00
9:04 am 09:04 Cloudy with Mist and Fog 63 17.2 63 17.2 100 100 WNW 9 15 29.77 1008 2 2 0.00 0.00
9:53 am 09:53 Cloudy with Mist and Fog 63 17.2 63 17.2 100 100 WNW 10 17 29.79 1009 3 5 0.00 0.00
10:10 am 10:10 Cloudy with Mist and Fog 64 17.8 64 17.8 100 100 WNW 12 19 29.80 1009 3 4 0.00 0.00
10:24 am 10:24 Cloudy with Mist and Fog 64 17.8 64 17.8 100 100 WNW 10 17 29.80 1009 2 2 0.00 0.00
10:40 am 10:40 Cloudy with Mist and Fog 64 17.8 64 17.8 100 100 WNW 10 17 29.80 1009 3 4 0.00 0.03
10:53 am 10:53 Cloudy with Light Rain 64 17.8 64 17.8 100 100 WNW 12 19 29.80 1009 2 3 0.00 0.03
11:11 am 11:11 Cloudy with Mist and Fog 64 17.8 64 17.8 100 100 W 13 20 29.80 1009 3 5 0.00 0.03
11:53 am 11:53 Cloudy 64 17.8 64 17.8 100 100 W 12 19 29.79 1009 8 13 0.00 0.03
12:53 pm 12:53 Cloudy 65 18.3 65 18.3 100 100 WNW 9 15 29.77 1008 7 11 0.00 0.00
1:53 pm 13:53 Cloudy 66 18.9 65 18.3 96 96 W 8 13 29.75 1007 8 13 0.00 0.00
2:07 pm 14:07 Cloudy 67 19.4 65 18.3 93 93 W 8 13 29.74 1007 8 13 0.00 0.00
2:53 pm 14:53 Cloudy 68 20 65 18.3 90 90 W 7 11 29.73 1007 8 13 0.00 0.00
3:12 pm 15:12 Cloudy 68 20 65 18.3 90 90 W 10 17 29.71 1006 8 13 0.00 0.00
3:19 pm 15:19 Cloudy 68 20 65 18.3 90 90 W 13 20 29.71 1006 8 13 0.00 0.00
3:53 pm 15:53 Cloudy 67 19.4 65 18.3 93 93 W 10 17 29.73 1007 7 11 0.00 0.00
4:40 pm 16:40 Cloudy 66 18.9 64 17.8 93 93 W 9 15 29.71 1006 10 16 0.00 0.00
4:53 pm 16:53 Cloudy 66 18.9 64 17.8 93 93 W 9 15 29.73 1007 10 16 0.00 0.00
5:41 pm 17:41 Cloudy 66 18.9 64 17.8 93 93 W 9 15 29.74 1007 10 16 0.00 0.00
5:53 pm 17:53 Cloudy 66 18.9 64 17.8 93 93 W 9 15 29.75 1007 10 16 0.00 0.00
6:53 pm 18:53 Cloudy 66 18.9 64 17.8 93 93 W 7 11 29.76 1008 9 14 0.00 0.00
7:53 pm 19:53 Cloudy 65 18.3 64 17.8 97 97 SW 3 6 29.76 1008 7 11 0.00 0.00
8:53 pm 20:53 Cloudy with Mist and Fog 65 18.3 64 17.8 97 97 SW 5 7 29.78 1008 6 10 0.00 0.00
9:53 pm 21:53 Mostly Cloudy with Mist and Fog 64 17.8 63 17.2 96 96 WSW 3 6 29.79 1009 6 10 0.00 0.00
10:03 pm 22:03 Partly Cloudy with Mist and Fog 64 17.8 63 17.2 96 96 WSW 5 7 29.80 1009 5 8 0.00 0.00
10:53 pm 22:53 Clear with Mist and Fog 62 16.7 62 16.7 100 100 Calm 29.81 1009 4 6 0.00 0.00
11:53 pm 23:53 Clear with Mist and Fog 60 15.6 60 15.6 100 100 Calm 29.81 1010 3 5 0.00 0.00

Powered by AerisWeather